TimeEST,TemperatureF,Dew PointF,Humidity,Sea Level PressureIn,VisibilityMPH,Wind Direction,Wind SpeedMPH,Gust SpeedMPH,PrecipitationIn,Events,Conditions,WindDirDegrees,DateUTC
12:14 AM,21.2,21.2,100,30.05,10.0,West,4.6,-,N/A,,Clear,280,2012-12-30 05:14:00
12:34 AM,21.2,19.4,93,30.06,10.0,West,5.8,-,N/A,,Clear,270,2012-12-30 05:34:00
12:54 AM,19.4,17.6,93,30.06,10.0,West,6.9,-,N/A,,Clear,260,2012-12-30 05:54:00
1:14 AM,19.4,19.4,100,30.07,10.0,West,5.8,-,N/A,,Clear,260,2012-12-30 06:14:00
1:34 AM,19.4,17.6,93,30.07,10.0,West,6.9,-,N/A,,Scattered Clouds,270,2012-12-30 06:34:00
1:54 AM,21.2,19.4,93,30.09,10.0,West,6.9,-,N/A,,Mostly Cloudy,270,2012-12-30 06:54:00
2:14 AM,23.0,21.2,93,30.09,7.0,West,4.6,-,N/A,,Overcast,260,2012-12-30 07:14:00
2:35 AM,23.0,21.2,93,30.10,7.0,West,6.9,-,N/A,,Overcast,270,2012-12-30 07:35:00
2:55 AM,23.0,21.2,93,30.11,7.0,West,5.8,-,N/A,,Overcast,260,2012-12-30 07:55:00
3:15 AM,24.8,23.0,93,30.13,7.0,WSW,5.8,-,N/A,,Overcast,250,2012-12-30 08:15:00
3:35 AM,24.8,23.0,93,30.13,5.0,WSW,6.9,-,N/A,Snow,Light Snow,250,2012-12-30 08:35:00
3:55 AM,24.8,23.0,93,30.14,5.0,WSW,5.8,-,N/A,Snow,Light Snow,240,2012-12-30 08:55:00
4:15 AM,24.8,23.0,93,30.14,5.0,WSW,5.8,-,N/A,Snow,Light Snow,240,2012-12-30 09:15:00
4:35 AM,24.8,23.0,93,30.15,4.0,WSW,5.8,-,N/A,Snow,Light Snow,240,2012-12-30 09:35:00
4:55 AM,24.8,24.8,100,30.15,3.0,WSW,5.8,-,N/A,Snow,Light Snow,240,2012-12-30 09:55:00
5:15 AM,26.6,24.8,93,30.16,4.0,WSW,4.6,-,N/A,Snow,Light Snow,250,2012-12-30 10:15:00
5:36 AM,26.6,24.8,93,30.16,4.0,WSW,5.8,-,N/A,Snow,Light Snow,240,2012-12-30 10:36:00
5:51 AM,26.6,26.6,100,30.17,3.0,WSW,4.6,-,N/A,Snow,Light Snow,250,2012-12-30 10:51:00
6:11 AM,28.4,26.6,93,30.18,4.0,WSW,4.6,-,N/A,Snow,Light Snow,240,2012-12-30 11:11:00
6:31 AM,28.4,26.6,93,30.20,4.0,WSW,5.8,-,N/A,Snow,Light Snow,240,2012-12-30 11:31:00
7:11 AM,28.4,28.4,100,30.22,4.0,West,4.6,-,N/A,Snow,Light Snow,270,2012-12-30 12:11:00
7:51 AM,30.2,26.6,86,30.24,10.0,West,13.8,-,N/A,,Overcast,260,2012-12-30 12:51:00
8:11 AM,30.2,26.6,86,30.25,10.0,West,12.7,18.4,N/A,,Overcast,260,2012-12-30 13:11:00
8:31 AM,30.2,24.8,80,30.25,10.0,West,12.7,-,N/A,,Overcast,260,2012-12-30 13:31:00
8:52 AM,30.2,26.6,86,30.26,10.0,SW,10.4,-,N/A,,Overcast,230,2012-12-30 13:52:00
9:12 AM,28.4,26.6,93,30.26,10.0,SW,9.2,-,N/A,,Overcast,230,2012-12-30 14:12:00
9:32 AM,28.4,24.8,86,30.26,10.0,SW,10.4,-,N/A,,Overcast,230,2012-12-30 14:32:00
9:52 AM,28.4,24.8,86,30.28,10.0,SW,13.8,-,N/A,,Overcast,230,2012-12-30 14:52:00
10:12 AM,28.4,24.8,86,30.30,10.0,WSW,13.8,-,N/A,,Overcast,240,2012-12-30 15:12:00
10:32 AM,26.6,23.0,86,30.30,10.0,WSW,16.1,-,N/A,,Overcast,240,2012-12-30 15:32:00
10:52 AM,26.6,23.0,86,30.31,10.0,SW,15.0,-,N/A,,Overcast,230,2012-12-30 15:52:00
11:12 AM,26.6,23.0,86,30.31,10.0,SW,16.1,-,N/A,,Overcast,230,2012-12-30 16:12:00
11:32 AM,26.6,21.2,80,30.29,10.0,WSW,12.7,16.1,N/A,,Mostly Cloudy,240,2012-12-30 16:32:00
11:53 AM,28.4,21.2,74,30.29,10.0,SW,15.0,-,N/A,,Scattered Clouds,230,2012-12-30 16:53:00
12:13 PM,28.4,21.2,74,30.29,10.0,WSW,13.8,21.9,N/A,,Mostly Cloudy,240,2012-12-30 17:13:00
12:33 PM,26.6,21.2,80,30.29,10.0,WSW,16.1,-,N/A,,Overcast,250,2012-12-30 17:33:00
12:53 PM,26.6,21.2,80,30.29,10.0,WSW,17.3,-,N/A,,Overcast,250,2012-12-30 17:53:00
1:13 PM,26.6,21.2,80,30.29,10.0,SW,15.0,-,N/A,,Overcast,230,2012-12-30 18:13:00
1:33 PM,24.8,21.2,86,30.29,10.0,SW,16.1,-,N/A,,Overcast,230,2012-12-30 18:33:00
1:53 PM,24.8,19.4,80,30.28,10.0,SW,16.1,-,N/A,,Overcast,230,2012-12-30 18:53:00
2:13 PM,24.8,19.4,80,30.28,10.0,SW,15.0,-,N/A,,Overcast,230,2012-12-30 19:13:00
2:33 PM,24.8,19.4,80,30.28,10.0,WSW,13.8,-,N/A,,Overcast,240,2012-12-30 19:33:00
2:53 PM,24.8,19.4,80,30.28,10.0,SW,11.5,-,N/A,,Overcast,230,2012-12-30 19:53:00
3:14 PM,24.8,19.4,80,30.29,10.0,SW,13.8,-,N/A,,Overcast,230,2012-12-30 20:14:00
3:34 PM,24.8,19.4,80,30.30,10.0,WSW,12.7,-,N/A,,Overcast,240,2012-12-30 20:34:00
3:54 PM,24.8,19.4,80,30.30,10.0,WSW,10.4,-,N/A,,Overcast,240,2012-12-30 20:54:00
4:14 PM,24.8,19.4,80,30.29,10.0,SW,10.4,-,N/A,,Overcast,230,2012-12-30 21:14:00
4:34 PM,23.0,17.6,80,30.28,10.0,SW,10.4,-,N/A,,Overcast,230,2012-12-30 21:34:00
4:54 PM,23.0,19.4,86,30.28,7.0,SW,9.2,-,N/A,,Overcast,220,2012-12-30 21:54:00
5:14 PM,21.2,17.6,86,30.28,10.0,SW,9.2,-,N/A,,Scattered Clouds,220,2012-12-30 22:14:00
5:39 PM,19.4,15.8,86,30.26,10.0,SW,5.8,-,N/A,,Clear,230,2012-12-30 22:39:00
5:59 PM,19.4,15.8,86,30.27,10.0,SSW,3.5,-,N/A,,Clear,210,2012-12-30 22:59:00
6:20 PM,19.4,15.8,86,30.27,7.0,South,3.5,-,N/A,,Clear,180,2012-12-30 23:20:00
6:35 PM,19.4,15.8,86,30.27,7.0,South,5.8,-,N/A,,Clear,190,2012-12-30 23:35:00
6:55 PM,17.6,15.8,93,30.26,7.0,South,5.8,-,N/A,,Clear,190,2012-12-30 23:55:00
7:15 PM,19.4,15.8,86,30.27,7.0,SSW,6.9,-,N/A,,Clear,200,2012-12-31 00:15:00
7:35 PM,19.4,15.8,86,30.28,7.0,SSW,5.8,-,N/A,,Clear,210,2012-12-31 00:35:00
7:55 PM,19.4,15.8,86,30.27,7.0,SSW,4.6,-,N/A,,Clear,200,2012-12-31 00:55:00
8:15 PM,19.4,15.8,86,30.27,7.0,SSW,4.6,-,N/A,,Clear,210,2012-12-31 01:15:00
8:35 PM,19.4,15.8,86,30.27,7.0,SW,6.9,-,N/A,,Clear,220,2012-12-31 01:35:00
8:55 PM,19.4,15.8,86,30.27,7.0,SW,4.6,-,N/A,,Clear,220,2012-12-31 01:55:00
9:15 PM,19.4,15.8,86,30.26,7.0,SSW,4.6,-,N/A,,Clear,200,2012-12-31 02:15:00
9:35 PM,19.4,15.8,86,30.24,7.0,South,3.5,-,N/A,,Clear,190,2012-12-31 02:35:00
9:51 PM,19.4,15.8,86,30.24,7.0,SSW,4.6,-,N/A,,Clear,200,2012-12-31 02:51:00
10:11 PM,19.4,15.8,86,30.23,7.0,SSW,3.5,-,N/A,,Clear,210,2012-12-31 03:11:00
10:31 PM,19.4,15.8,86,30.22,7.0,SSW,4.6,-,N/A,,Clear,210,2012-12-31 03:31:00
10:51 PM,19.4,15.8,86,30.22,7.0,SSW,6.9,-,N/A,,Clear,210,2012-12-31 03:51:00
11:11 PM,21.2,17.6,86,30.21,7.0,SSW,6.9,-,N/A,,Clear,210,2012-12-31 04:11:00
11:31 PM,21.2,17.6,86,30.21,7.0,SSW,8.1,-,N/A,,Clear,210,2012-12-31 04:31:00
11:51 PM,21.2,17.6,86,30.20,7.0,SSW,8.1,-,N/A,,Clear,210,2012-12-31 04:51:00